Weather History for Flippin, AR

Change the Weather History Date:

Saturday, January 1, 2000

  Actual Average Record
Temperature  
Mean Temperature 48 °F -  
Max Temperature 69 °F 46 °F 69 °F (2000)
Min Temperature 26 °F 27 °F 14 °F (2002)
Degree Days  
Heating Degree Days 18    
Moisture  
Dew Point 30 °F    
Average Humidity 62    
Maximum Humidity 86    
Minimum Humidity 27    
Precipitation  
Precipitation 0.00 in - - ()
Sea Level Pressure  
Sea Level Pressure 30.01 in    
Wind  
Wind Speed 1 mph (SSE)    
Max Wind Speed 10 mph    
Max Gust Speed -    
Visibility 10 miles    
Events      
Averages and records for this station are not official NWS values.
T = Trace of Precipitation, MM = Missing Value Source: NWS Daily Summary

Daily Weather History Graph

Daily Weather History Graph

Search for Another Location

Airport:

Trip Planner

Search our weather history database for the weather conditions in past years. The results will help you decide how hot, cold, wet, or windy it might be!

Date:

Astronomy

Jan. 01, 2000 Rise Set
Actual Time 7:21 AM CST 5:05 PM CST
Civil Twilight 6:53 AM CST 5:34 PM CST
Nautical Twilight 6:20 AM CST 6:06 PM CST
Astronomical Twilight 5:49 AM CST 6:37 PM CST
Moon 2:44 AM CST (1/1) 1:55 PM CST (1/1)
Length of Visible Light 10h 41m
Length of Day
9h 44m
Waning Crescent, 21% of the Moon is Illuminated
Jan 1
Waning Crescent
Jan 6
New
Jan 14
First Quarter
Jan 20
Full
Jan 28
Last Quarter

Hourly Weather History & Observations

Time (CST) Temp. Windchill Dew Point Humidity Pressure Visibility Wind Dir Wind Speed Gust Speed Precip Events Conditions
12:15 AM 33.8 °F - 24.8 °F 70% 30.07 in 10.0 mi Calm Calm - N/A   Clear
12:35 AM 35.6 °F - 24.8 °F 65% 30.06 in 10.0 mi Calm Calm - N/A   Clear
12:55 AM 33.8 °F - 24.8 °F 70% 30.06 in 10.0 mi Calm Calm - N/A   Clear
1:15 AM 30.2 °F - 24.8 °F 80% 30.06 in 10.0 mi Calm Calm - N/A   Clear
1:35 AM 32.0 °F - 24.8 °F 75% 30.06 in 10.0 mi Calm Calm - N/A   Clear
1:55 AM 32.0 °F - 24.8 °F 75% 30.06 in 10.0 mi Calm Calm - N/A   Clear
2:15 AM 32.0 °F - 24.8 °F 75% 30.06 in 10.0 mi Calm Calm - N/A   Clear
2:35 AM 30.2 °F - 24.8 °F 80% 30.06 in 10.0 mi Calm Calm - N/A   Clear
2:55 AM 30.2 °F - 24.8 °F 80% 30.06 in 10.0 mi Calm Calm - N/A   Clear
3:15 AM 30.2 °F - 24.8 °F 80% 30.05 in 10.0 mi Calm Calm - N/A   Clear
3:35 AM 30.2 °F - 24.8 °F 80% 30.05 in 10.0 mi Calm Calm - N/A   Clear
3:55 AM 28.4 °F - 23.0 °F 80% 30.05 in 10.0 mi Calm Calm - N/A   Clear
4:15 AM 28.4 °F - 24.8 °F 86% 30.05 in 10.0 mi Calm Calm - N/A   Clear
4:35 AM 28.4 °F - 24.8 °F 86% 30.04 in 10.0 mi Calm Calm - N/A   Clear
4:55 AM 28.4 °F - 24.8 °F 86% 30.04 in 10.0 mi Calm Calm - N/A   Clear
5:15 AM 28.4 °F - 24.8 °F 86% 30.04 in 10.0 mi Calm Calm - N/A   Clear
5:35 AM 28.4 °F - 23.0 °F 80% 30.04 in 10.0 mi Calm Calm - N/A   Clear
5:55 AM 28.4 °F - 23.0 °F 80% 30.04 in 10.0 mi Calm Calm - N/A   Clear
6:15 AM 28.4 °F - 23.0 °F 80% 30.04 in 10.0 mi Calm Calm - N/A   Clear
6:35 AM 28.4 °F - 24.8 °F 86% 30.05 in 10.0 mi Calm Calm - N/A   Clear
6:55 AM 28.4 °F - 23.0 °F 80% 30.05 in 10.0 mi Calm Calm - N/A   Clear
7:15 AM 26.6 °F - 23.0 °F 86% 30.05 in 10.0 mi Calm Calm - N/A   Clear
7:35 AM 26.6 °F - 23.0 °F 86% 30.06 in 10.0 mi Calm Calm - N/A   Clear
7:55 AM 26.6 °F - 23.0 °F 86% 30.06 in 10.0 mi Calm Calm - N/A   Clear
8:15 AM 28.4 °F - 24.8 °F 86% 30.07 in 10.0 mi Calm Calm - N/A   Clear
8:35 AM 30.2 °F - 24.8 °F 80% 30.07 in 10.0 mi Calm Calm - N/A   Clear
8:55 AM 32.0 °F - 24.8 °F 75% 30.08 in 10.0 mi Calm Calm - N/A   Clear
9:15 AM 35.6 °F - 28.4 °F 75% 30.08 in 10.0 mi Calm Calm - N/A   Clear
9:35 AM 37.4 °F - 28.4 °F 70% 30.08 in 10.0 mi Calm Calm - N/A   Clear
9:55 AM 39.2 °F - 28.4 °F 65% 30.07 in 10.0 mi Calm Calm - N/A   Clear
10:15 AM 42.8 °F 41.1 °F 30.2 °F 61% 30.07 in 10.0 mi East 3.5 mph - N/A   Clear
10:35 AM 44.6 °F - 32.0 °F 61% 30.07 in 10.0 mi Calm Calm - N/A   Clear
10:55 AM 48.2 °F - 33.8 °F 58% 30.06 in 10.0 mi East 3.5 mph - N/A   Clear
11:15 AM 50.0 °F - 33.8 °F 54% 30.04 in 10.0 mi ENE 3.5 mph - N/A   Clear
11:35 AM 53.6 °F - 35.6 °F 51% 30.03 in 10.0 mi Calm Calm - N/A   Clear
11:55 AM 55.4 °F - 37.4 °F 51% 30.01 in 10.0 mi East 3.5 mph - N/A   Clear
12:15 PM 59.0 °F - 39.2 °F 48% 29.99 in 10.0 mi ESE 4.6 mph - N/A   Clear
12:35 PM 62.6 °F - 39.2 °F 42% 29.98 in 10.0 mi South 3.5 mph - N/A   Clear
12:55 PM 64.4 °F - 39.2 °F 40% 29.97 in 10.0 mi SSE 9.2 mph - N/A   Clear
1:15 PM 66.2 °F - 41.0 °F 40% 29.96 in 10.0 mi SSE 5.8 mph - N/A   Clear
1:35 PM 66.2 °F - 39.2 °F 37% 29.95 in 10.0 mi SSE 4.6 mph - N/A   Clear
1:55 PM 66.2 °F - 39.2 °F 37% 29.94 in 10.0 mi SE 5.8 mph - N/A   Clear
2:15 PM 68.0 °F - 41.0 °F 37% 29.93 in 10.0 mi SSE 6.9 mph - N/A   Partly Cloudy
2:35 PM 69.8 °F - 37.4 °F 31% 29.93 in 10.0 mi South 8.1 mph - N/A   Partly Cloudy
2:55 PM 69.8 °F - 35.6 °F 28% 29.92 in 10.0 mi South 6.9 mph - N/A   Partly Cloudy
3:15 PM 69.8 °F - 33.8 °F 27% 29.92 in 10.0 mi SSW 10.4 mph - N/A   Clear
3:35 PM 68.0 °F - 33.8 °F 28% 29.92 in 10.0 mi South 9.2 mph - N/A   Clear
3:55 PM 68.0 °F - 37.4 °F 33% 29.91 in 10.0 mi SSE 6.9 mph - N/A   Clear
4:15 PM 66.2 °F - 37.4 °F 35% 29.91 in 10.0 mi SSE 5.8 mph - N/A   Clear
4:35 PM 64.4 °F - 37.4 °F 37% 29.91 in 10.0 mi SSE 8.1 mph - N/A   Clear
4:55 PM 62.6 °F - 37.4 °F 39% 29.91 in 10.0 mi SSE 6.9 mph - N/A   Clear
5:15 PM 60.8 °F - 39.2 °F 45% 29.90 in 10.0 mi SSE 8.1 mph - N/A   Clear
5:35 PM 60.8 °F - 39.2 °F 45% 29.90 in 10.0 mi SSE 6.9 mph - N/A   Clear
5:55 PM 59.0 °F - 39.2 °F 48% 29.90 in 10.0 mi SSE 9.2 mph - N/A   Clear
6:15 PM 59.0 °F - 41.0 °F 51% 29.89 in 10.0 mi SSE 4.6 mph - N/A   Clear
6:35 PM 59.0 °F - 41.0 °F 51% 29.89 in 10.0 mi SE 9.2 mph 17.3 mph N/A   Clear
6:55 PM 57.2 °F - 41.0 °F 55% 29.89 in 10.0 mi SSE 6.9 mph - N/A   Clear
7:15 PM 57.2 °F - 41.0 °F 55% 29.89 in 10.0 mi SSE 5.8 mph - N/A   Clear
7:35 PM 57.2 °F - 41.0 °F 55% 29.89 in 10.0 mi SSE 6.9 mph - N/A   Clear
7:55 PM 57.2 °F - 41.0 °F 55% 29.88 in 10.0 mi SSE 6.9 mph - N/A   Clear
8:15 PM 55.4 °F - 41.0 °F 58% 29.89 in 10.0 mi SE 6.9 mph - N/A   Clear
8:35 PM 55.4 °F - 41.0 °F 58% 29.89 in 10.0 mi SSE 5.8 mph - N/A   Clear
8:55 PM 55.4 °F - 42.8 °F 63% 29.88 in 10.0 mi SSE 6.9 mph - N/A   Clear
9:15 PM 55.4 °F - 42.8 °F 63% 29.88 in 10.0 mi SSE 10.4 mph 19.6 mph N/A   Clear
9:35 PM 57.2 °F - 44.6 °F 63% 29.87 in 10.0 mi SSE 8.1 mph 18.4 mph N/A   Clear
9:55 PM 57.2 °F - 44.6 °F 63% 29.87 in 10.0 mi South 4.6 mph 19.6 mph N/A   Clear
10:15 PM 57.2 °F - 44.6 °F 63% 29.88 in 10.0 mi South 5.8 mph - N/A   Clear
10:35 PM 57.2 °F - 44.6 °F 63% 29.88 in 10.0 mi South 4.6 mph - N/A   Clear
10:55 PM 57.2 °F - 44.6 °F 63% 29.88 in 10.0 mi South 5.8 mph - N/A   Clear
11:15 PM 57.2 °F - 44.6 °F 63% 29.87 in 10.0 mi South 6.9 mph - N/A   Clear
11:35 PM 57.2 °F - 44.6 °F 63% 29.86 in 10.0 mi South 8.1 mph 17.3 mph N/A   Clear
11:55 PM 57.2 °F - 44.6 °F 63% 29.85 in 10.0 mi South 10.4 mph 16.1 mph N/A   Clear